Year,Month,Day,Hour,Minute,Value (Times are PST for temperature in C)
2015,08,21,00,00,13.50
2015,08,21,00,01,13.50
2015,08,21,00,02,13.50
2015,08,21,00,03,13.50
2015,08,21,00,04,13.50
2015,08,21,00,05,13.50
2015,08,21,00,06,13.50
2015,08,21,00,07,13.50
2015,08,21,00,08,13.50
2015,08,21,00,09,13.50
2015,08,21,00,10,13.50
2015,08,21,00,11,13.50
2015,08,21,00,12,13.50
2015,08,21,00,13,13.50
2015,08,21,00,14,13.50
2015,08,21,00,15,13.50
2015,08,21,00,16,13.50
2015,08,21,00,17,13.50
2015,08,21,00,18,13.50
2015,08,21,00,19,13.50
2015,08,21,00,20,13.50
2015,08,21,00,21,13.50
2015,08,21,00,22,13.50
2015,08,21,00,23,13.50
2015,08,21,00,24,13.50
2015,08,21,00,25,13.50
2015,08,21,00,26,13.50
2015,08,21,00,27,13.50
2015,08,21,00,28,13.50
2015,08,21,00,29,13.50
2015,08,21,00,30,13.50
2015,08,21,00,31,13.50
2015,08,21,00,32,13.50
2015,08,21,00,33,13.50
2015,08,21,00,34,13.50
2015,08,21,00,35,13.50
2015,08,21,00,36,13.50
2015,08,21,00,37,13.50
2015,08,21,00,38,13.50
2015,08,21,00,39,13.50
2015,08,21,00,40,13.50
2015,08,21,00,41,13.50
2015,08,21,00,42,13.50
2015,08,21,00,43,13.50
2015,08,21,00,44,13.50
2015,08,21,00,45,13.50
2015,08,21,00,46,13.50
2015,08,21,00,47,13.50
2015,08,21,00,48,13.50
2015,08,21,00,49,13.50
2015,08,21,00,50,13.50
2015,08,21,00,51,13.50
2015,08,21,00,52,13.50
2015,08,21,00,53,13.50
2015,08,21,00,54,13.50
2015,08,21,00,55,13.50
2015,08,21,00,56,13.50
2015,08,21,00,57,13.40
2015,08,21,00,58,13.40
2015,08,21,00,59,13.40
2015,08,21,01,00,13.40
2015,08,21,01,01,13.40
2015,08,21,01,02,13.40
2015,08,21,01,03,13.40
2015,08,21,01,04,13.40
2015,08,21,01,05,13.40
2015,08,21,01,06,13.40
2015,08,21,01,07,13.40
2015,08,21,01,08,13.40
2015,08,21,01,09,13.40
2015,08,21,01,10,13.40
2015,08,21,01,11,13.40
2015,08,21,01,12,13.40
2015,08,21,01,13,13.40
2015,08,21,01,14,13.40
2015,08,21,01,15,13.40
2015,08,21,01,16,13.40
2015,08,21,01,17,13.40
2015,08,21,01,18,13.40
2015,08,21,01,19,13.40
2015,08,21,01,20,13.40
2015,08,21,01,21,13.30
2015,08,21,01,22,13.30
2015,08,21,01,23,13.30
2015,08,21,01,24,13.30
2015,08,21,01,25,13.30
2015,08,21,01,26,13.30
2015,08,21,01,27,13.30
2015,08,21,01,28,13.30
2015,08,21,01,29,13.20
2015,08,21,01,30,13.20
2015,08,21,01,31,13.20
2015,08,21,01,32,13.20
2015,08,21,01,33,13.20
2015,08,21,01,34,13.20
2015,08,21,01,35,13.20
2015,08,21,01,36,13.20
2015,08,21,01,37,13.10
2015,08,21,01,38,13.10
2015,08,21,01,39,13.10
2015,08,21,01,40,13.10
2015,08,21,01,41,13.10
2015,08,21,01,42,13.10
2015,08,21,01,43,13.10
2015,08,21,01,44,13.10
2015,08,21,01,45,13.00
2015,08,21,01,46,13.00
2015,08,21,01,47,13.00
2015,08,21,01,48,13.00
2015,08,21,01,49,13.00
2015,08,21,01,50,13.00
2015,08,21,01,51,12.90
2015,08,21,01,52,12.90
2015,08,21,01,53,12.90
2015,08,21,01,54,12.90
2015,08,21,01,55,12.90
2015,08,21,01,56,12.80
2015,08,21,01,57,12.80
2015,08,21,01,58,12.80
2015,08,21,01,59,12.80
2015,08,21,02,00,12.70
2015,08,21,02,01,12.70
2015,08,21,02,02,12.70
2015,08,21,02,03,12.70
2015,08,21,02,04,12.70
2015,08,21,02,05,12.60
2015,08,21,02,06,12.60
2015,08,21,02,07,12.60
2015,08,21,02,08,12.60
2015,08,21,02,09,12.60
2015,08,21,02,10,12.60
2015,08,21,02,11,12.50
2015,08,21,02,12,12.50
2015,08,21,02,13,12.50
2015,08,21,02,14,12.40
2015,08,21,02,15,12.40
2015,08,21,02,16,12.40
2015,08,21,02,17,12.40
2015,08,21,02,18,12.40
2015,08,21,02,19,12.30
2015,08,21,02,20,12.30
2015,08,21,02,21,12.30
2015,08,21,02,22,12.30
2015,08,21,02,23,12.30
2015,08,21,02,24,12.30
2015,08,21,02,25,12.30
2015,08,21,02,26,12.30
2015,08,21,02,27,12.30
2015,08,21,02,28,12.30
2015,08,21,02,29,12.30
2015,08,21,02,30,12.20
2015,08,21,02,31,12.20
2015,08,21,02,32,12.20
2015,08,21,02,33,12.20
2015,08,21,02,34,12.20
2015,08,21,02,35,12.20
2015,08,21,02,36,12.20
2015,08,21,02,37,12.10
2015,08,21,02,38,12.10
2015,08,21,02,39,12.10
2015,08,21,02,40,12.10
2015,08,21,02,41,12.10
2015,08,21,02,42,12.10
2015,08,21,02,43,12.10
2015,08,21,02,44,12.10
2015,08,21,02,45,12.10
2015,08,21,02,46,12.10
2015,08,21,02,47,12.10
2015,08,21,02,48,12.10
2015,08,21,02,49,12.10
2015,08,21,02,50,12.00
2015,08,21,02,51,12.00
2015,08,21,02,52,12.00
2015,08,21,02,53,11.90
2015,08,21,02,54,11.90
2015,08,21,02,55,11.90
2015,08,21,02,56,11.90
2015,08,21,02,57,11.90
2015,08,21,02,58,11.90
2015,08,21,02,59,11.80
2015,08,21,03,00,11.80
2015,08,21,03,01,11.80
2015,08,21,03,02,11.80
2015,08,21,03,03,11.80
2015,08,21,03,04,11.80
2015,08,21,03,05,11.80
2015,08,21,03,06,11.80
2015,08,21,03,07,11.80
2015,08,21,03,08,11.80
2015,08,21,03,09,11.80
2015,08,21,03,10,11.70
2015,08,21,03,11,11.70
2015,08,21,03,12,11.70
2015,08,21,03,13,11.70
2015,08,21,03,14,11.70
2015,08,21,03,15,11.70
2015,08,21,03,16,11.70
2015,08,21,03,17,11.70
2015,08,21,03,18,11.70
2015,08,21,03,19,11.60
2015,08,21,03,20,11.60
2015,08,21,03,21,11.60
2015,08,21,03,22,11.60
2015,08,21,03,23,11.60
2015,08,21,03,24,11.60
2015,08,21,03,25,11.50
2015,08,21,03,26,11.50
2015,08,21,03,27,11.50
2015,08,21,03,28,11.50
2015,08,21,03,29,11.40
2015,08,21,03,30,11.40
2015,08,21,03,31,11.40
2015,08,21,03,32,11.40
2015,08,21,03,33,11.40
2015,08,21,03,34,11.40
2015,08,21,03,35,11.30
2015,08,21,03,36,11.30
2015,08,21,03,37,11.30
2015,08,21,03,38,11.30
2015,08,21,03,39,11.30
2015,08,21,03,40,11.30
2015,08,21,03,41,11.30
2015,08,21,03,42,11.20
2015,08,21,03,43,11.20
2015,08,21,03,44,11.20
2015,08,21,03,45,11.20
2015,08,21,03,46,11.20
2015,08,21,03,47,11.20
2015,08,21,03,48,11.20
2015,08,21,03,49,11.20
2015,08,21,03,50,11.20
2015,08,21,03,51,11.20
2015,08,21,03,52,11.20
2015,08,21,03,53,11.20
2015,08,21,03,54,11.20
2015,08,21,03,55,11.20
2015,08,21,03,56,11.20
2015,08,21,03,57,11.20
2015,08,21,03,58,11.20
2015,08,21,03,59,11.10
2015,08,21,04,00,11.10
2015,08,21,04,01,11.20
2015,08,21,04,02,11.20
2015,08,21,04,03,11.20
2015,08,21,04,04,11.20
2015,08,21,04,05,11.20
2015,08,21,04,06,11.20
2015,08,21,04,07,11.20
2015,08,21,04,08,11.20
2015,08,21,04,09,11.20
2015,08,21,04,10,11.30
2015,08,21,04,11,11.30
2015,08,21,04,12,11.30
2015,08,21,04,13,11.30
2015,08,21,04,14,11.30
2015,08,21,04,15,11.30
2015,08,21,04,16,11.30
2015,08,21,04,17,11.30
2015,08,21,04,18,11.30
2015,08,21,04,19,11.30
2015,08,21,04,20,11.30
2015,08,21,04,21,11.30
2015,08,21,04,22,11.30
2015,08,21,04,23,11.30
2015,08,21,04,24,11.30
2015,08,21,04,25,11.30
2015,08,21,04,26,11.30
2015,08,21,04,27,11.30
2015,08,21,04,28,11.30
2015,08,21,04,29,11.30
2015,08,21,04,30,11.30
2015,08,21,04,31,11.30
2015,08,21,04,32,11.30
2015,08,21,04,33,11.30
2015,08,21,04,34,11.30
2015,08,21,04,35,11.30
2015,08,21,04,36,11.30
2015,08,21,04,37,11.30
2015,08,21,04,38,11.30
2015,08,21,04,39,11.30
2015,08,21,04,40,11.30
2015,08,21,04,41,11.30
2015,08,21,04,42,11.30
2015,08,21,04,43,11.30
2015,08,21,04,44,11.30
2015,08,21,04,45,11.30
2015,08,21,04,46,11.30
2015,08,21,04,47,11.30
2015,08,21,04,48,11.30
2015,08,21,04,49,11.30
2015,08,21,04,50,11.30
2015,08,21,04,51,11.30
2015,08,21,04,52,11.30
2015,08,21,04,53,11.30
2015,08,21,04,54,11.30
2015,08,21,04,55,11.30
2015,08,21,04,56,11.30
2015,08,21,04,57,11.30
2015,08,21,04,58,11.30
2015,08,21,04,59,11.30
2015,08,21,05,00,11.30
2015,08,21,05,01,11.30
2015,08,21,05,02,11.30
2015,08,21,05,03,11.30
2015,08,21,05,04,11.30
2015,08,21,05,05,11.30
2015,08,21,05,06,11.30
2015,08,21,05,07,11.30
2015,08,21,05,08,11.30
2015,08,21,05,09,11.30
2015,08,21,05,10,11.20
2015,08,21,05,11,11.20
2015,08,21,05,12,11.20
2015,08,21,05,13,11.20
2015,08,21,05,14,11.20
2015,08,21,05,15,11.20
2015,08,21,05,16,11.30
2015,08,21,05,17,11.30
2015,08,21,05,18,11.30
2015,08,21,05,19,11.30
2015,08,21,05,20,11.30
2015,08,21,05,21,11.30
2015,08,21,05,22,11.30
2015,08,21,05,23,11.30
2015,08,21,05,24,11.30
2015,08,21,05,25,11.30
2015,08,21,05,26,11.40
2015,08,21,05,27,11.40
2015,08,21,05,28,11.40
2015,08,21,05,29,11.40
2015,08,21,05,30,11.40
2015,08,21,05,31,11.40
2015,08,21,05,32,11.40
2015,08,21,05,33,11.50
2015,08,21,05,34,11.50
2015,08,21,05,35,11.50
2015,08,21,05,36,11.50
2015,08,21,05,37,11.50
2015,08,21,05,38,11.50
2015,08,21,05,39,11.60
2015,08,21,05,40,11.60
2015,08,21,05,41,11.60
2015,08,21,05,42,11.60
2015,08,21,05,43,11.60
2015,08,21,05,44,11.60
2015,08,21,05,45,11.60
2015,08,21,05,46,11.70
2015,08,21,05,47,11.70
2015,08,21,05,48,11.70
2015,08,21,05,49,11.70
2015,08,21,05,50,11.70
2015,08,21,05,51,11.70
2015,08,21,05,52,11.70
2015,08,21,05,53,11.70
2015,08,21,05,54,11.80
2015,08,21,05,55,11.80
2015,08,21,05,56,11.80
2015,08,21,05,57,11.80
2015,08,21,05,58,11.80
2015,08,21,05,59,11.80
2015,08,21,06,00,11.80
2015,08,21,06,01,11.80
2015,08,21,06,02,11.80
2015,08,21,06,03,11.80
2015,08,21,06,04,11.80
2015,08,21,06,05,11.80
2015,08,21,06,06,11.80
2015,08,21,06,07,11.90
2015,08,21,06,08,11.90
2015,08,21,06,09,11.90
2015,08,21,06,10,11.90
2015,08,21,06,11,11.90
2015,08,21,06,12,11.90
2015,08,21,06,13,11.90
2015,08,21,06,14,11.90
2015,08,21,06,15,11.90
2015,08,21,06,16,11.90
2015,08,21,06,17,11.90
2015,08,21,06,18,11.90
2015,08,21,06,19,11.90
2015,08,21,06,20,11.90
2015,08,21,06,21,12.00
2015,08,21,06,22,12.00
2015,08,21,06,23,12.00
2015,08,21,06,24,12.00
2015,08,21,06,25,12.00
2015,08,21,06,26,12.00
2015,08,21,06,27,12.00
2015,08,21,06,28,12.10
2015,08,21,06,29,12.10
2015,08,21,06,30,12.10
2015,08,21,06,31,12.10
2015,08,21,06,32,12.10
2015,08,21,06,33,12.10
2015,08,21,06,34,12.10
2015,08,21,06,35,12.10
2015,08,21,06,36,12.10
2015,08,21,06,37,12.10
2015,08,21,06,38,12.20
2015,08,21,06,39,12.20
2015,08,21,06,40,12.20
2015,08,21,06,41,12.20
2015,08,21,06,42,12.20
2015,08,21,06,43,12.20
2015,08,21,06,44,12.20
2015,08,21,06,45,12.20
2015,08,21,06,46,12.20
2015,08,21,06,47,12.20
2015,08,21,06,48,12.20
2015,08,21,06,49,12.20
2015,08,21,06,50,12.20
2015,08,21,06,51,12.20
2015,08,21,06,52,12.20
2015,08,21,06,53,12.30
2015,08,21,06,54,12.30
2015,08,21,06,55,12.30
2015,08,21,06,56,12.30
2015,08,21,06,57,12.30
2015,08,21,06,58,12.30
2015,08,21,06,59,12.30
2015,08,21,07,00,12.30
2015,08,21,07,01,12.30
2015,08,21,07,02,12.30
2015,08,21,07,03,12.30
2015,08,21,07,04,12.30
2015,08,21,07,05,12.30
2015,08,21,07,06,12.30
2015,08,21,07,07,12.30
2015,08,21,07,08,12.30
2015,08,21,07,09,12.30
2015,08,21,07,10,12.40
2015,08,21,07,11,12.40
2015,08,21,07,12,12.40
2015,08,21,07,13,12.40
2015,08,21,07,14,12.40
2015,08,21,07,15,12.40
2015,08,21,07,16,12.40
2015,08,21,07,17,12.40
2015,08,21,07,18,12.40
2015,08,21,07,19,12.40
2015,08,21,07,20,12.40
2015,08,21,07,21,12.40
2015,08,21,07,22,12.40
2015,08,21,07,23,12.40
2015,08,21,07,24,12.40
2015,08,21,07,25,12.40
2015,08,21,07,26,12.40
2015,08,21,07,27,12.40
2015,08,21,07,28,12.50
2015,08,21,07,29,12.50
2015,08,21,07,30,12.50
2015,08,21,07,31,12.50
2015,08,21,07,32,12.50
2015,08,21,07,33,12.50
2015,08,21,07,34,12.60
2015,08,21,07,35,12.60
2015,08,21,07,36,12.60
2015,08,21,07,37,12.60
2015,08,21,07,38,12.60
2015,08,21,07,39,12.60
2015,08,21,07,40,12.70
2015,08,21,07,41,12.70
2015,08,21,07,42,12.70
2015,08,21,07,43,12.70
2015,08,21,07,44,12.70
2015,08,21,07,45,12.70
2015,08,21,07,46,12.70
2015,08,21,07,47,12.70
2015,08,21,07,48,12.70
2015,08,21,07,49,12.70
2015,08,21,07,50,12.70
2015,08,21,07,51,12.70
2015,08,21,07,52,12.80
2015,08,21,07,53,12.80
2015,08,21,07,54,12.80
2015,08,21,07,55,12.80
2015,08,21,07,56,12.80
2015,08,21,07,57,12.80
2015,08,21,07,58,12.80
2015,08,21,07,59,12.80
2015,08,21,08,00,12.80
2015,08,21,08,01,12.80
2015,08,21,08,02,12.80
2015,08,21,08,03,12.80
2015,08,21,08,04,12.80
2015,08,21,08,05,12.90
2015,08,21,08,06,12.90
2015,08,21,08,07,12.90
2015,08,21,08,08,12.90
2015,08,21,08,09,12.90
2015,08,21,08,10,12.90
2015,08,21,08,11,12.90
2015,08,21,08,12,13.00
2015,08,21,08,13,13.00
2015,08,21,08,14,13.00
2015,08,21,08,15,13.00
2015,08,21,08,16,13.10
2015,08,21,08,17,13.10
2015,08,21,08,18,13.10
2015,08,21,08,19,13.10
2015,08,21,08,20,13.10
2015,08,21,08,21,13.20
2015,08,21,08,22,13.20
2015,08,21,08,23,13.10
2015,08,21,08,24,13.10
2015,08,21,08,25,13.10
2015,08,21,08,26,13.10
2015,08,21,08,27,13.10
2015,08,21,08,28,13.10
2015,08,21,08,29,13.10
2015,08,21,08,30,13.10
2015,08,21,08,31,13.20
2015,08,21,08,32,13.20
2015,08,21,08,33,13.20
2015,08,21,08,34,13.20
2015,08,21,08,35,13.20
2015,08,21,08,36,13.20
2015,08,21,08,37,13.20
2015,08,21,08,38,13.30
2015,08,21,08,39,13.30
2015,08,21,08,40,13.30
2015,08,21,08,41,13.30
2015,08,21,08,42,13.30
2015,08,21,08,43,13.30
2015,08,21,08,44,13.30
2015,08,21,08,45,13.40
2015,08,21,08,46,13.40
2015,08,21,08,47,13.40
2015,08,21,08,48,13.40
2015,08,21,08,49,13.40
2015,08,21,08,50,13.40
2015,08,21,08,51,13.40
2015,08,21,08,52,13.40
2015,08,21,08,53,13.50
2015,08,21,08,54,13.50
2015,08,21,08,55,13.60
2015,08,21,08,56,13.60
2015,08,21,08,57,13.60
2015,08,21,08,58,13.60
2015,08,21,08,59,13.70
2015,08,21,09,00,13.70
2015,08,21,09,01,13.70
2015,08,21,09,02,13.70
2015,08,21,09,03,13.80
2015,08,21,09,04,13.80
2015,08,21,09,05,13.80
2015,08,21,09,06,13.80
2015,08,21,09,07,13.80
2015,08,21,09,08,13.90
2015,08,21,09,09,13.90
2015,08,21,09,10,13.90
2015,08,21,09,11,13.90
2015,08,21,09,12,13.90
2015,08,21,09,13,13.90
2015,08,21,09,14,13.90
2015,08,21,09,15,13.90
2015,08,21,09,16,13.90
2015,08,21,09,17,13.90
2015,08,21,09,18,13.90
2015,08,21,09,19,13.90
2015,08,21,09,20,14.00
2015,08,21,09,21,14.00
2015,08,21,09,22,14.00
2015,08,21,09,23,14.10
2015,08,21,09,24,14.10
2015,08,21,09,25,14.10
2015,08,21,09,26,14.10
2015,08,21,09,27,14.10
2015,08,21,09,28,14.10
2015,08,21,09,29,14.10
2015,08,21,09,30,14.20
2015,08,21,09,31,14.20
2015,08,21,09,32,14.20
2015,08,21,09,33,14.20
2015,08,21,09,34,14.20
2015,08,21,09,35,14.30
2015,08,21,09,36,14.30
2015,08,21,09,37,14.30
2015,08,21,09,38,14.30
2015,08,21,09,39,14.30
2015,08,21,09,40,14.30
2015,08,21,09,41,14.40
2015,08,21,09,42,14.40
2015,08,21,09,43,14.40
2015,08,21,09,44,14.40
2015,08,21,09,45,14.40
2015,08,21,09,46,14.50
2015,08,21,09,47,14.50
2015,08,21,09,48,14.50
2015,08,21,09,49,14.60
2015,08,21,09,50,14.60
2015,08,21,09,51,14.60
2015,08,21,09,52,14.60
2015,08,21,09,53,14.60
2015,08,21,09,54,14.70
2015,08,21,09,55,14.70
2015,08,21,09,56,14.70
2015,08,21,09,57,14.70
2015,08,21,09,58,14.70
2015,08,21,09,59,14.70
2015,08,21,10,00,14.70
2015,08,21,10,01,14.80
2015,08,21,10,02,14.80
2015,08,21,10,03,14.80
2015,08,21,10,04,14.80
2015,08,21,10,05,14.80
2015,08,21,10,06,14.80
2015,08,21,10,07,14.90
2015,08,21,10,08,14.90
2015,08,21,10,09,14.90
2015,08,21,10,10,14.90
2015,08,21,10,11,15.00
2015,08,21,10,12,15.00
2015,08,21,10,13,15.00
2015,08,21,10,14,15.00
2015,08,21,10,15,15.00
2015,08,21,10,16,15.00
2015,08,21,10,17,15.00
2015,08,21,10,18,15.00
2015,08,21,10,19,14.90
2015,08,21,10,20,14.90
2015,08,21,10,21,14.90
2015,08,21,10,22,14.90
2015,08,21,10,23,14.90
2015,08,21,10,24,14.90
2015,08,21,10,25,14.90
2015,08,21,10,26,14.90
2015,08,21,10,27,14.90
2015,08,21,10,28,14.90
2015,08,21,10,29,15.00
2015,08,21,10,30,15.00
2015,08,21,10,31,15.00
2015,08,21,10,32,14.90
2015,08,21,10,33,14.90
2015,08,21,10,34,14.90
2015,08,21,10,35,15.00
2015,08,21,10,36,15.00
2015,08,21,10,37,14.90
2015,08,21,10,38,14.90
2015,08,21,10,39,14.90
2015,08,21,10,40,14.90
2015,08,21,10,41,14.90
2015,08,21,10,42,15.00
2015,08,21,10,43,15.00
2015,08,21,10,44,15.00
2015,08,21,10,45,15.00
2015,08,21,10,46,15.00
2015,08,21,10,47,15.00
2015,08,21,10,48,15.00
2015,08,21,10,49,15.00
2015,08,21,10,50,15.00
2015,08,21,10,51,15.10
2015,08,21,10,52,15.10
2015,08,21,10,53,15.10
2015,08,21,10,54,15.10
2015,08,21,10,55,15.10
2015,08,21,10,56,15.10
2015,08,21,10,57,15.10
2015,08,21,10,58,15.00
2015,08,21,10,59,15.00
2015,08,21,11,00,15.00
2015,08,21,11,01,15.10
2015,08,21,11,02,15.10
2015,08,21,11,03,15.10
2015,08,21,11,04,15.10
2015,08,21,11,05,15.10
2015,08,21,11,06,15.10
2015,08,21,11,07,15.10
2015,08,21,11,08,15.20
2015,08,21,11,09,15.20
2015,08,21,11,10,15.20
2015,08,21,11,11,15.30
2015,08,21,11,12,15.30
2015,08,21,11,13,15.30
2015,08,21,11,14,15.30
2015,08,21,11,15,15.30
2015,08,21,11,16,15.30
2015,08,21,11,17,15.30
2015,08,21,11,18,15.30
2015,08,21,11,19,15.30
2015,08,21,11,20,15.30
2015,08,21,11,21,15.30
2015,08,21,11,22,15.30
2015,08,21,11,23,15.30
2015,08,21,11,24,15.20
2015,08,21,11,25,15.20
2015,08,21,11,26,15.20
2015,08,21,11,27,15.20
2015,08,21,11,28,15.20
2015,08,21,11,29,15.20
2015,08,21,11,30,15.20
2015,08,21,11,31,15.30
2015,08,21,11,32,15.30
2015,08,21,11,33,15.30
2015,08,21,11,34,15.40
2015,08,21,11,35,15.50
2015,08,21,11,36,15.60
2015,08,21,11,37,15.70
2015,08,21,11,38,15.70
2015,08,21,11,39,15.80
2015,08,21,11,40,15.90
2015,08,21,11,41,15.90
2015,08,21,11,42,15.90
2015,08,21,11,43,15.80
2015,08,21,11,44,15.70
2015,08,21,11,45,15.70
2015,08,21,11,46,15.70
2015,08,21,11,47,15.70
2015,08,21,11,48,15.60
2015,08,21,11,49,15.60
2015,08,21,11,50,15.60
2015,08,21,11,51,15.60
2015,08,21,11,52,15.50
2015,08,21,11,53,15.50
2015,08,21,11,54,15.50
2015,08,21,11,55,15.50
2015,08,21,11,56,15.50
2015,08,21,11,57,15.60
2015,08,21,11,58,15.60
2015,08,21,11,59,15.60
2015,08,21,12,00,15.60
2015,08,21,12,01,15.60
2015,08,21,12,02,15.70
2015,08,21,12,03,15.70
2015,08,21,12,04,15.70
2015,08,21,12,05,15.80
2015,08,21,12,06,15.80
2015,08,21,12,07,15.80
2015,08,21,12,08,15.80
2015,08,21,12,09,15.80
2015,08,21,12,10,15.80
2015,08,21,12,11,15.80
2015,08,21,12,12,15.80
2015,08,21,12,13,15.70
2015,08,21,12,14,15.70
2015,08,21,12,15,15.70
2015,08,21,12,16,15.60
2015,08,21,12,17,15.50
2015,08,21,12,18,15.40
2015,08,21,12,19,15.30
2015,08,21,12,20,15.30
2015,08,21,12,21,15.30
2015,08,21,12,22,15.30
2015,08,21,12,23,15.30
2015,08,21,12,24,15.40
2015,08,21,12,25,15.40
2015,08,21,12,26,15.40
2015,08,21,12,27,15.50
2015,08,21,12,28,15.60
2015,08,21,12,29,15.60
2015,08,21,12,30,15.60
2015,08,21,12,31,15.60
2015,08,21,12,32,15.70
2015,08,21,12,33,15.80
2015,08,21,12,34,15.80
2015,08,21,12,35,15.80
2015,08,21,12,36,15.90
2015,08,21,12,37,15.90
2015,08,21,12,38,16.00
2015,08,21,12,39,16.00
2015,08,21,12,40,16.10
2015,08,21,12,41,16.20
2015,08,21,12,42,16.20
2015,08,21,12,43,16.30
2015,08,21,12,44,16.30
2015,08,21,12,45,16.40
2015,08,21,12,46,16.40
2015,08,21,12,47,16.40
2015,08,21,12,48,16.40
2015,08,21,12,49,16.40
2015,08,21,12,50,16.50
2015,08,21,12,51,16.40
2015,08,21,12,52,16.40
2015,08,21,12,53,16.40
2015,08,21,12,54,16.40
2015,08,21,12,55,16.40
2015,08,21,12,56,16.40
2015,08,21,12,57,16.50
2015,08,21,12,58,16.50
2015,08,21,12,59,16.50
2015,08,21,13,00,16.40
2015,08,21,13,01,16.40
2015,08,21,13,02,16.40
2015,08,21,13,03,16.40
2015,08,21,13,04,16.50
2015,08,21,13,05,16.50
2015,08,21,13,06,16.60
2015,08,21,13,07,16.70
2015,08,21,13,08,16.70
2015,08,21,13,09,16.80
2015,08,21,13,10,16.80
2015,08,21,13,11,16.90
2015,08,21,13,12,16.90
2015,08,21,13,13,16.90
2015,08,21,13,14,16.90
2015,08,21,13,15,16.90
2015,08,21,13,16,17.00
2015,08,21,13,17,17.00
2015,08,21,13,18,16.90
2015,08,21,13,19,16.90
2015,08,21,13,20,16.90
2015,08,21,13,21,16.80
2015,08,21,13,22,16.80
2015,08,21,13,23,16.80
2015,08,21,13,24,16.80
2015,08,21,13,25,16.80
2015,08,21,13,26,16.70
2015,08,21,13,27,16.60
2015,08,21,13,28,16.50
2015,08,21,13,29,16.50
2015,08,21,13,30,16.40
2015,08,21,13,31,16.30
2015,08,21,13,32,16.30
2015,08,21,13,33,16.30
2015,08,21,13,34,16.30
2015,08,21,13,35,16.30
2015,08,21,13,36,16.30
2015,08,21,13,37,16.30
2015,08,21,13,38,16.30
2015,08,21,13,39,16.30
2015,08,21,13,40,16.30
2015,08,21,13,41,16.30
2015,08,21,13,42,16.20
2015,08,21,13,43,16.20
2015,08,21,13,44,16.20
2015,08,21,13,45,16.20
2015,08,21,13,46,16.30
2015,08,21,13,47,16.30
2015,08,21,13,48,16.30
2015,08,21,13,49,16.30
2015,08,21,13,50,16.30
2015,08,21,13,51,16.30
2015,08,21,13,52,16.30
2015,08,21,13,53,16.30
2015,08,21,13,54,16.30
2015,08,21,13,55,16.30
2015,08,21,13,56,16.40
2015,08,21,13,57,16.40
2015,08,21,13,58,16.40
2015,08,21,13,59,16.40
2015,08,21,14,00,16.40
2015,08,21,14,01,16.30
2015,08,21,14,02,16.30
2015,08,21,14,03,16.30
2015,08,21,14,04,16.30
2015,08,21,14,05,16.20
2015,08,21,14,06,16.20
2015,08,21,14,07,16.20
2015,08,21,14,08,16.30
2015,08,21,14,09,16.40
2015,08,21,14,10,16.40
2015,08,21,14,11,16.40
2015,08,21,14,12,16.40
2015,08,21,14,13,16.40
2015,08,21,14,14,16.40
2015,08,21,14,15,16.40
2015,08,21,14,16,16.40
2015,08,21,14,17,16.40
2015,08,21,14,18,16.40
2015,08,21,14,19,16.40
2015,08,21,14,20,16.40
2015,08,21,14,21,16.40
2015,08,21,14,22,16.40
2015,08,21,14,23,16.30
2015,08,21,14,24,16.30
2015,08,21,14,25,16.20
2015,08,21,14,26,16.20
2015,08,21,14,27,16.20
2015,08,21,14,28,16.30
2015,08,21,14,29,16.40
2015,08,21,14,30,16.50
2015,08,21,14,31,16.60
2015,08,21,14,32,16.70
2015,08,21,14,33,16.70
2015,08,21,14,34,16.70
2015,08,21,14,35,16.80
2015,08,21,14,36,16.90
2015,08,21,14,37,16.90
2015,08,21,14,38,17.00
2015,08,21,14,39,17.00
2015,08,21,14,40,17.10
2015,08,21,14,41,17.10
2015,08,21,14,42,17.10
2015,08,21,14,43,17.00
2015,08,21,14,44,17.00
2015,08,21,14,45,16.90
2015,08,21,14,46,16.80
2015,08,21,14,47,16.70
2015,08,21,14,48,16.70
2015,08,21,14,49,16.70
2015,08,21,14,50,16.70
2015,08,21,14,51,16.70
2015,08,21,14,52,16.70
2015,08,21,14,53,16.60
2015,08,21,14,54,16.50
2015,08,21,14,55,16.50
2015,08,21,14,56,16.40
2015,08,21,14,57,16.40
2015,08,21,14,58,16.50
2015,08,21,14,59,16.40
2015,08,21,15,00,16.40
2015,08,21,15,01,16.40
2015,08,21,15,02,16.40
2015,08,21,15,03,16.50
2015,08,21,15,04,16.50
2015,08,21,15,05,16.50
2015,08,21,15,06,16.50
2015,08,21,15,07,16.60
2015,08,21,15,08,16.60
2015,08,21,15,09,16.60
2015,08,21,15,10,16.60
2015,08,21,15,11,16.60
2015,08,21,15,12,16.70
2015,08,21,15,13,16.70
2015,08,21,15,14,16.80
2015,08,21,15,15,16.80
2015,08,21,15,16,16.80
2015,08,21,15,17,16.80
2015,08,21,15,18,16.70
2015,08,21,15,19,16.70
2015,08,21,15,20,16.70
2015,08,21,15,21,16.80
2015,08,21,15,22,16.80
2015,08,21,15,23,16.80
2015,08,21,15,24,16.90
2015,08,21,15,25,16.90
2015,08,21,15,26,16.90
2015,08,21,15,27,16.90
2015,08,21,15,28,16.90
2015,08,21,15,29,16.90
2015,08,21,15,30,16.90
2015,08,21,15,31,16.80
2015,08,21,15,32,16.90
2015,08,21,15,33,16.90
2015,08,21,15,34,17.00
2015,08,21,15,35,17.10
2015,08,21,15,36,17.20
2015,08,21,15,37,17.30
2015,08,21,15,38,17.30
2015,08,21,15,39,17.30
2015,08,21,15,40,17.30
2015,08,21,15,41,17.30
2015,08,21,15,42,17.40
2015,08,21,15,43,17.40
2015,08,21,15,44,17.40
2015,08,21,15,45,17.30
2015,08,21,15,46,17.30
2015,08,21,15,47,17.20
2015,08,21,15,48,17.20
2015,08,21,15,49,17.10
2015,08,21,15,50,17.10
2015,08,21,15,51,17.10
2015,08,21,15,52,17.10
2015,08,21,15,53,17.10
2015,08,21,15,54,17.20
2015,08,21,15,55,17.20
2015,08,21,15,56,17.20
2015,08,21,15,57,17.20
2015,08,21,15,58,17.20
2015,08,21,15,59,17.20
2015,08,21,16,00,17.20
2015,08,21,16,01,17.20
2015,08,21,16,02,17.20
2015,08,21,16,03,17.20
2015,08,21,16,04,17.20
2015,08,21,16,05,17.20
2015,08,21,16,06,17.20
2015,08,21,16,07,17.20
2015,08,21,16,08,17.10
2015,08,21,16,09,17.10
2015,08,21,16,10,17.20
2015,08,21,16,11,17.30
2015,08,21,16,12,17.30
2015,08,21,16,13,17.30
2015,08,21,16,14,17.40
2015,08,21,16,15,17.40
2015,08,21,16,16,17.50
2015,08,21,16,17,17.50
2015,08,21,16,18,17.50
2015,08,21,16,19,17.50
2015,08,21,16,20,17.40
2015,08,21,16,21,17.40
2015,08,21,16,22,17.40
2015,08,21,16,23,17.40
2015,08,21,16,24,17.40
2015,08,21,16,25,17.40
2015,08,21,16,26,17.40
2015,08,21,16,27,17.50
2015,08,21,16,28,17.60
2015,08,21,16,29,17.60
2015,08,21,16,30,17.70
2015,08,21,16,31,17.70
2015,08,21,16,32,17.70
2015,08,21,16,33,17.60
2015,08,21,16,34,17.60
2015,08,21,16,35,17.70
2015,08,21,16,36,17.60
2015,08,21,16,37,17.50
2015,08,21,16,38,17.50
2015,08,21,16,39,17.50
2015,08,21,16,40,17.50
2015,08,21,16,41,17.40
2015,08,21,16,42,17.40
2015,08,21,16,43,17.50
2015,08,21,16,44,17.50
2015,08,21,16,45,17.40
2015,08,21,16,46,17.40
2015,08,21,16,47,17.40
2015,08,21,16,48,17.30
2015,08,21,16,49,17.30
2015,08,21,16,50,17.30
2015,08,21,16,51,17.30
2015,08,21,16,52,17.40
2015,08,21,16,53,17.40
2015,08,21,16,54,17.40
2015,08,21,16,55,17.40
2015,08,21,16,56,17.30
2015,08,21,16,57,17.30
2015,08,21,16,58,17.30
2015,08,21,16,59,17.30
2015,08,21,17,00,17.30
2015,08,21,17,01,17.40
2015,08,21,17,02,17.40
2015,08,21,17,03,17.40
2015,08,21,17,04,17.40
2015,08,21,17,05,17.50
2015,08,21,17,06,17.50
2015,08,21,17,07,17.50
2015,08,21,17,08,17.40
2015,08,21,17,09,17.40
2015,08,21,17,10,17.30
2015,08,21,17,11,17.30
2015,08,21,17,12,17.30
2015,08,21,17,13,17.30
2015,08,21,17,14,17.20
2015,08,21,17,15,17.30
2015,08,21,17,16,17.20
2015,08,21,17,17,17.20
2015,08,21,17,18,17.20
2015,08,21,17,19,17.20